Location: Fort Wayne
(41.1310°N, 85.1290°W)
Time: 11:09:52
(UTC-05:00)

OPAL - Visible Passes

Search period start: 24 November 2014 00:00
Search period end: 04 December 2014 00:00
Orbit: 744 x 797 km, 100.2° (Epoch: 23 November)

Date Brightness Start Highest point End Pass type
(mag) Time Alt. Az. Time Alt. Az. Time Alt. Az.
24 Nov 10.0 04:01:58 10° E 04:04:57 16° ENE 04:04:58 16° ENE visible
24 Nov 7.3 05:38:23 10° S 05:43:19 64° WSW 05:45:16 36° NW visible
24 Nov 8.3 17:48:23 10° NE 17:52:52 32° E 17:57:22 10° SSE visible
24 Nov 9.2 19:27:19 10° N 19:31:40 31° WNW 19:36:03 10° SW visible
25 Nov 7.9 05:03:14 10° SSE 05:08:05 58° ENE 05:09:27 43° NNE visible
25 Nov 9.0 06:44:20 10° SW 06:47:19 16° W 06:49:45 12° WNW visible
25 Nov 7.9 18:51:37 10° N 18:56:35 65° WNW 19:01:36 10° SSW visible
26 Nov 9.2 04:28:54 10° ESE 04:33:02 27° ENE 04:33:37 27° NE visible
26 Nov 8.0 06:07:16 10° SSW 06:11:46 35° W 06:13:55 24° NW visible
26 Nov 7.6 18:16:23 10° NNE 18:21:21 58° ESE 18:26:21 10° S visible
26 Nov 9.9 19:56:25 10° NNW 19:59:47 18° WNW 20:03:10 10° WSW visible
27 Nov 10.2 03:55:51 10° E 03:57:48 13° ENE 03:57:48 13° ENE visible
27 Nov 7.3 05:31:27 10° SSE 05:36:25 79° WSW 05:38:06 42° NNW visible
27 Nov 8.5 17:41:42 10° NE 17:45:55 26° E 17:50:10 10° SSE visible
27 Nov 8.9 19:20:15 10° N 19:24:51 37° WNW 19:29:28 10° SW visible
28 Nov 8.3 04:56:30 10° SE 05:01:14 47° ENE 05:02:17 40° NNE visible
28 Nov 8.7 06:36:48 10° SW 06:40:20 20° W 06:42:35 15° WNW visible
28 Nov 7.6 18:44:41 10° NNE 18:49:44 79° WNW 18:54:49 10° SSW visible
28 Nov 10.4 20:26:43 10° NW 20:27:47 11° NW 20:28:51 10° WNW visible
29 Nov 9.5 04:22:26 10° ESE 04:26:14 23° ENE 04:26:29 23° ENE visible
29 Nov 7.7 06:00:08 10° S 06:04:50 43° W 06:06:47 29° NW visible
29 Nov 7.8 18:09:33 10° NNE 18:14:26 47° ESE 18:19:20 10° S visible
29 Nov 9.7 19:49:12 10° NNW 19:53:00 22° WNW 19:56:49 10° WSW visible
30 Nov 10.4 03:50:08 10° ENE 03:50:40 11° ENE 03:50:40 11° ENE visible
30 Nov 7.4 05:24:34 10° SSE 05:29:31 85° ENE 05:30:58 47° N visible
30 Nov 9.3 07:08:26 10° W 07:09:00 10° W 07:09:34 10° W visible
30 Nov 8.8 17:35:05 10° NE 17:38:58 22° E 17:42:51 10° SE visible
30 Nov 8.5 19:13:13 10° N 19:18:01 45° WNW 19:22:51 10° SW visible
01 Dec 8.6 04:49:49 10° SE 04:54:22 39° ENE 04:55:10 36° NE visible
01 Dec 8.5 06:29:24 10° SSW 06:33:21 24° W 06:35:28 18° WNW visible
01 Dec 7.4 18:37:46 10° NNE 18:42:51 85° ESE 18:47:58 10° SSW visible
01 Dec 10.3 20:18:46 10° NNW 20:21:02 13° WNW 20:23:19 10° W visible
02 Dec 9.8 04:16:01 10° ESE 04:19:22 19° ENE 04:19:22 19° ENE visible
02 Dec 7.5 05:53:05 10° S 05:57:54 53° WSW 05:59:40 35° NW visible
02 Dec 8.0 18:02:47 10° NNE 18:07:31 39° E 18:12:16 10° SSE visible
02 Dec 9.4 19:42:02 10° N 19:46:12 26° WNW 19:50:23 10° WSW visible
03 Dec 7.6 05:17:43 10° SSE 05:22:37 69° ENE 05:23:52 49° N visible
03 Dec 9.2 06:59:44 10° WSW 07:01:59 13° W 07:04:10 10° WNW visible
03 Dec 8.2 19:06:13 10° N 19:11:10 55° WNW 19:16:09 10° SW visible
